Погода в Южно-Подольске

Россия / Омская область     54°24′52″N   75°03′23″E
темп.,
°C
ветер,
м/с
пор.,
м/с
влажн.,
%
обл.,
%
осадки,
мм/ч
давл.,
гПа
погр.,
м
22 апреля, чт
чт2200:00−1ссв59685 0.0 1034638
03:00−2ссв58735 0.0 1037551
06:00−3ссв48765 0.0 1040415
09:000св56545 0.0 1042816
12:00+4всв45405 0.0 10431410
15:00+5св34365 0.0 10441634
18:00+5всв34375 0.0 10441601
21:00+2вюв345577 0.0 104551
23 апреля, пт
пт2300:00+1юв23580 0.0 104629
03:000вюв23604 0.0 104644
06:00−1вюв22625 0.0 104734
09:00+3юв44465 0.0 1046612
12:00+6ююв33395 0.0 10461424
15:00+7юв33350 0.0 10441457
18:00+8юв22340 0.0 10431561
21:00+5юв34500 0.0 104250
24 апреля, сб
сб2400:00+3юв336243 0.0 104234
03:00+1юв3567100 0.0 104067
06:00+1юв347040 0.0 103965
09:00+5ююв345365 0.0 1038430
12:00+8ю443916 0.0 10361444
15:00+10ю3434100 0.0 10341645
18:00+10ю4434100 0.0 10331549
21:00+7ююв3448100 0.0 103363
25 апреля, вс
вс2500:00+5юв365599 0.0 1031103
03:00+4юв4958100 0.0 1031174
06:00+4юв41059100 0.0 1030207
09:00+6ююв51048100 0.0 1029552
12:00+10юв7935100 0.0 10281156
15:00+11ююв7831100 0.0 10261385
18:00+11юв6833100 0.0 10251481
21:00+9вюв6134296 0.0 1024356
26 апреля, пн
пн2600:00+7юв71545100 0.0 1023382
03:00+7юв61548100 0.0 1022417
06:00+5юв5125472 0.0 1021306
09:00+9ююв684667 0.0 1021490
12:00+14ююз5746100 0.0 10201076
15:00+14зюз6852100 0.1 10191289
18:00+16з6836100 0.1 10191991
21:00+11зюз4948100 0.0 1020161